User: anonymous   Login
Location: �clusier
(49.9361°N, 2.7869°E)
Time: 06:25:20
(UTC+00:00)
Language:

Cosmos 1452 Rocket - Orbit

View from above orbital plane
View from above orbital plane
View from above satellite
View from above satellite

Ground track
Ground track

The orbit data is extracted from the following two-line orbital elements,

1 13992U 83031B   21265.45285467  .00000031  00000-0  19731-4 0  9995
2 13992  74.0547  28.7434 0005544 333.3814  26.7054 14.36240852 12220
Epoch (UTC): 22 September 2021 10:52:06
Eccentricity: 0.0005544
inclination: 74.0547°
perigee height: 767 km
apogee height: 775 km
right ascension of ascending node: 28.7434°
argument of perigee: 333.3814°
revolutions per day: 14.36240852
mean anomaly at epoch: 26.7054°
orbit number at epoch: 1222

The dashed part of the orbit path shows where the satellite is in the earth's shadow,  

DLR